Weather History for LTFE - November, 2012

Change the Weather History Date:

Saturday, November 24, 2012

  Actual Average (LGKO) Record (LGKO)
Temperature  
Mean Temperature 55 °F -  
Max Temperature 66 °F 62 °F 69 °F (2006)
Min Temperature 44 °F 53 °F 48 °F (2007)
Degree Days  
Heating Degree Days 10    
Growing Degree Days 5 (Base 50)    
Moisture  
Dew Point 44 °F    
Average Humidity 72    
Maximum Humidity 93    
Minimum Humidity 43    
Precipitation  
Precipitation 0.00 in - - ()
Sea Level Pressure  
Sea Level Pressure 30.04 in    
Wind  
Wind Speed 3 mph ()    
Max Wind Speed 8 mph    
Max Gust Speed -    
Visibility 6.2 miles    
Events      
Averages and records for this station are not official NWS values.
T = Trace of Precipitation, MM = Missing Value Source: Averaged Metar Reports

Daily Weather History Graph

Daily Weather History Graph

Search for Another Location

Airport or City:

Trip Planner

Search our weather history database for the weather conditions in past years. The results will help you decide how hot, cold, wet, or windy it might be!

Date:

Astronomy

Nov. 24, 2012 Rise Set
Actual Time 6:57 AM EET 4:54 PM EET
Civil Twilight 6:29 AM EET 5:22 PM EET
Nautical Twilight 5:57 AM EET 5:54 PM EET
Astronomical Twilight 5:26 AM EET 6:25 PM EET
Moon 2:25 PM EET (11/24) 3:00 AM EET (11/24)
Length of Visible Light 10h 52m
Length of Day
9h 56m
Waxing Gibbous, 85% of the Moon is Illuminated
Nov 24
Waxing Gibbous
Nov 28
Full
Dec 6
Last Quarter
Dec 13
New
Dec 20
First Quarter

Hourly Weather History & Observations

Time (EET) Temp. Windchill Dew Point Humidity Pressure Visibility Wind Dir Wind Speed Gust Speed Precip Events Conditions
12:20 AM 46.4 °F 45.2 °F 41.0 °F 81% 30.04 in - East 3.5 mph - N/A   Clear
12:50 AM 48.2 °F - 42.8 °F 82% 30.04 in - SE 4.6 mph - N/A   Clear
1:20 AM 46.4 °F - 41.0 °F 81% 30.04 in - Variable 2.3 mph - N/A   Clear
1:50 AM 46.4 °F 45.2 °F 41.0 °F 81% 30.06 in - ESE 3.5 mph - N/A   Clear
2:20 AM 46.4 °F 45.2 °F 42.8 °F 87% 30.06 in - SE 3.5 mph - N/A   Clear
2:50 AM 46.4 °F - 42.8 °F 87% 30.04 in - Variable 2.3 mph - N/A   Clear
3:20 AM 46.4 °F 43.5 °F 42.8 °F 87% 30.04 in - SE 5.8 mph - N/A   Clear
3:50 AM 46.4 °F - 42.8 °F 87% 30.04 in - Variable 2.3 mph - N/A   Clear
4:20 AM 46.4 °F - 42.8 °F 87% 30.04 in - ENE 2.3 mph - N/A   Clear
4:50 AM 46.4 °F 45.2 °F 42.8 °F 87% 30.04 in - SE 3.5 mph - N/A   Clear
5:20 AM 44.6 °F 43.1 °F 42.8 °F 93% 30.04 in - ESE 3.5 mph - N/A   Clear
5:50 AM 44.6 °F - 41.0 °F 87% 30.04 in - ESE 2.3 mph - N/A   Clear
6:20 AM 46.4 °F 45.2 °F 42.8 °F 87% 30.04 in 6.2 mi ESE 3.5 mph - N/A   Mostly Cloudy
6:50 AM 46.4 °F 44.3 °F 42.8 °F 87% 30.04 in 6.2 mi ESE 4.6 mph - N/A   Mostly Cloudy
7:20 AM 46.4 °F 45.2 °F 42.8 °F 87% 30.04 in 6.2 mi SE 3.5 mph - N/A   Mostly Cloudy
7:50 AM 48.2 °F - 42.8 °F 82% 30.04 in 6.2 mi Variable 2.3 mph - N/A   Mostly Cloudy
8:20 AM 48.2 °F - 44.6 °F 87% 30.06 in 6.2 mi Calm Calm - N/A   Mostly Cloudy
8:50 AM 50.0 °F - 44.6 °F 82% 30.06 in 6.2 mi SE 4.6 mph - N/A   Mostly Cloudy
9:20 AM 53.6 °F - 44.6 °F 72% 30.06 in 6.2 mi East 3.5 mph - N/A   Scattered Clouds
9:50 AM 55.4 °F - 44.6 °F 67% 30.06 in 6.2 mi SE 4.6 mph - N/A   Scattered Clouds
10:20 AM 59.0 °F - 44.6 °F 59% 30.06 in 6.2 mi SE 3.5 mph - N/A   Scattered Clouds
10:50 AM 60.8 °F - 46.4 °F 59% 30.04 in 6.2 mi Variable 1.2 mph - N/A   Mostly Cloudy
11:20 AM 62.6 °F - 44.6 °F 52% 30.04 in 6.2 mi Variable 2.3 mph - N/A   Mostly Cloudy
11:50 AM 64.4 °F - 46.4 °F 52% 30.04 in 6.2 mi Variable 3.5 mph - N/A   Scattered Clouds
12:20 PM 64.4 °F - 44.6 °F 49% 30.01 in - Variable 2.3 mph - N/A   Clear
12:50 PM 64.4 °F - 42.8 °F 45% 30.01 in 6.2 mi WSW 4.6 mph - N/A   Scattered Clouds
1:20 PM 66.2 °F - 42.8 °F 43% 30.01 in 6.2 mi Variable 2.3 mph - N/A   Scattered Clouds
1:50 PM 64.4 °F - 42.8 °F 45% 30.01 in 6.2 mi WSW 3.5 mph - N/A   Scattered Clouds
2:20 PM 66.2 °F - 46.4 °F 49% 30.01 in 6.2 mi Variable 5.8 mph - N/A   Scattered Clouds
2:50 PM 64.4 °F - 46.4 °F 52% 30.01 in 6.2 mi West 8.1 mph - N/A   Scattered Clouds
3:20 PM 64.4 °F - 44.6 °F 49% 30.01 in 6.2 mi West 4.6 mph - N/A   Scattered Clouds
3:50 PM 64.4 °F - 46.4 °F 52% 30.01 in 6.2 mi West 4.6 mph - N/A   Scattered Clouds
4:20 PM 62.6 °F - 44.6 °F 52% 30.01 in 6.2 mi West 3.5 mph - N/A   Scattered Clouds
4:50 PM 60.8 °F - 48.2 °F 63% 30.01 in 6.2 mi Variable 2.3 mph - N/A   Scattered Clouds
5:20 PM 55.4 °F - 46.4 °F 72% 30.01 in - East 5.8 mph - N/A   Clear
5:50 PM 55.4 °F - 46.4 °F 72% 30.04 in - NE 4.6 mph - N/A   Clear
6:20 PM 57.2 °F - 44.6 °F 63% 30.04 in - ENE 5.8 mph - N/A   Clear
6:50 PM 55.4 °F - 44.6 °F 67% 30.04 in - East 3.5 mph - N/A   Clear
7:20 PM 53.6 °F - 44.6 °F 72% 30.04 in - East 5.8 mph - N/A   Clear
7:50 PM 55.4 °F - 44.6 °F 67% 30.04 in - East 6.9 mph - N/A   Clear
8:20 PM 51.8 °F - 44.6 °F 76% 30.04 in - East 6.9 mph - N/A   Clear
8:50 PM 53.6 °F - 44.6 °F 72% 30.04 in - East 6.9 mph - N/A   Clear
9:20 PM 51.8 °F - 44.6 °F 76% 30.04 in - ENE 4.6 mph - N/A   Clear
9:50 PM 51.8 °F - 44.6 °F 76% 30.04 in - Variable 2.3 mph - N/A   Clear
10:20 PM 50.0 °F - 42.8 °F 76% 30.04 in - ESE 5.8 mph - N/A   Clear
10:50 PM 48.2 °F - 42.8 °F 82% 30.04 in - SE 6.9 mph - N/A   Clear
11:20 PM 48.2 °F - 44.6 °F 87% 30.06 in - SSE 5.8 mph - N/A   Clear
11:50 PM 46.4 °F 43.5 °F 42.8 °F 87% 30.06 in - ESE 5.8 mph - N/A   Clear